Weather Roundup
Issued by NWS Chicago, IL

Home | Current Version | Previous Version | Graphics & Text | Print | Product List | Glossary On
Versions: 1 2 3 4 5 6 7 8 9 10 11 12 13 14 15 16 17 18 19 20 21 22 23 24 25 26 27 28 29 30 31 32 33 34 35 36 37 38 39 40 41 42 43 44 45 46 47 48 49 50
000
NZUS59 KLOT 231300
HRRLOT

CHICAGO AREA WEATHER ROUNDUP
NATIONAL WEATHER SERVICE CHICAGO/ROMEOVILLE IL
800 AM CDT SAT AUG 23 2014

NOTE: "FAIR" INDICATES FEW OR NO CLOUDS BELOW 12,000 FEET WITH NO
SIGNIFICANT WEATHER AND/OR OBSTRUCTIONS TO VISIBILITY.

* THESE STATIONS ARE NOT UNDER NWS QUALITY CONTROL. THEY ALSO MAY NOT
  REPORT WEATHER SUCH AS PRECIPITATION OR FOG.

ILZ005-006-012>014-019>023-231400-
NORTHEAST ILLINOIS

CITY           SKY/WX    TMP DP  RH WIND       PRES   REMARKS
OHARE          PTSUNNY   74  72  93 CALM      29.99R FOG
MIDWAY         PTSUNNY   78  75  90 W3        29.99R FOG     HX  81
AURORA         PTSUNNY   76  73  91 E5        29.99R FOG
WAUKEGAN       FOG       71  70  96 CALM      29.99R VSB 1/4
DUPAGE AIRPORT CLOUDY    75  73  93 CALM      29.99S FOG
WHEELING       FOG       74  72  93 CALM      30.01R VSB 1/2
NORTHERLY IS     N/A     73  71  93 CALM        N/A
$$

WIZ051-052-058>065-066-070>072-231400-
SOUTHEAST WISCONSIN

CITY           SKY/WX    TMP DP  RH WIND       PRES   REMARKS
MILWAUKEE      FOG       70  69  97 NE6       30.01R VSB 1/4
KENOSHA*       FOG       71  71 100 CALM      30.01R VSB<1/4
RACINE*        FOG       71  70  96 CALM      30.03R VSB<1/4
WAUKESHA       FOG       70  68  94 E3        30.03R VSB 1/4
$$

INZ001>003-010>013-019-020-231400-
NORTHWEST INDIANA

CITY           SKY/WX    TMP DP  RH WIND       PRES   REMARKS
GARY*          NOT AVBL
MICHIGAN CITY* NOT AVBL
RENSSELAER*    NOT AVBL
VALPARAISO     MOSUNNY   74  72  93 CALM      30.00R
$$

LMZ740>746-231400-
SOUTHERN LAKE MICHIGAN

STATION/POSITION TIME  SKY/WX   TEMP WIND        PRES    VSBY
                                AIR  DIR/SP/G
                 (UTC)          (F)  (DEG/KT/KT) (MB)    (MI)
HARRISON CRIB    1200            72  100/  3/  4   N/A
BURNHAM HARBOR   1300            73   CALM  /  5   N/A
CALUMET HARBOR   1200            72   CALM  /  2 1014.2R
BURNS HARBOR     1200            73  180/  2/  4   N/A
MICHIGAN CITY    1200            73  100/  2/  3   N/A
$$

ABBREVIATIONS USED IN REMARKS
   TC - TEMPERATURE IN CELSIUS
  WCI - WIND CHILL INDEX
   HX - HEAT INDEX
  VSB - VISIBILITY
$$



USA.gov is the U.S. government's official web portal to all federal, state and local government web resources and services.